This is the latest recevied weather packets stored in our database for station/object CE3UOB-10. If no packets are shown the sender has not sent any weather packets the latest 10 day(s).
| Time | Temp. | Humidity | Pressure | Rain* | Wind** | Luminosity | Snow |
|---|---|---|---|---|---|---|---|
| 1777644266 | 11.11° C | 90% | 1000.3 hPa | - | - | - | - |
| 1777644259 | 11.11° C | 90% | 1000.3 hPa | - | - | - | - |
| 1777642575 | 10° C | 100% | 1000.1 hPa | - | - | - | - |
| 1777642459 | 10° C | 100% | 1000.1 hPa | - | - | - | - |
| 1777640666 | 10.56° C | 99% | 1000 hPa | - | - | - | - |
| 1777640659 | 10.56° C | 99% | 1000 hPa | - | - | - | - |
| 1777638865 | 9.44° C | 100% | 999.8 hPa | - | - | - | - |
| 1777638859 | 9.44° C | 100% | 999.8 hPa | - | - | - | - |
| 1777637066 | 12.22° C | 83% | 999.4 hPa | - | - | - | - |
| 1777637059 | 12.22° C | 83% | 999.4 hPa | - | - | - | - |
| 1777635266 | 10.56° C | 96% | 999.1 hPa | - | - | - | - |
| 1777635259 | 10.56° C | 96% | 999.1 hPa | - | - | - | - |
| 1777633465 | 10° C | 94% | 998.7 hPa | - | - | - | - |
| 1777633458 | 10° C | 94% | 998.7 hPa | - | - | - | - |
| 1777631665 | 10° C | 97% | 998.5 hPa | - | - | - | - |
| 1777631658 | 10° C | 97% | 998.5 hPa | - | - | - | - |
| 1777629866 | 11.11° C | 89% | 998 hPa | - | - | - | - |
| 1777629857 | 11.11° C | 89% | 998 hPa | - | - | - | - |
| 1777628065 | 11.67° C | 88% | 997.9 hPa | - | - | - | - |
| 1777628056 | 11.67° C | 88% | 997.9 hPa | - | - | - | - |
| 1777626262 | 10° C | 97% | 997.6 hPa | - | - | - | - |
| 1777626257 | 10° C | 97% | 997.6 hPa | - | - | - | - |
| 1777624462 | 11.67° C | 86% | 997.4 hPa | - | - | - | - |
| 1777624457 | 11.67° C | 86% | 997.4 hPa | - | - | - | - |
| 1777622662 | 12.22° C | 86% | 997.4 hPa | - | - | - | - |
* Rain since midnight (hover to see other rain measurements)
** Current wind speed in m/s (hover to see current wind gust speed)